• în România
  • Lista ţărilor
  • Pe 7 zile
  • Temperatura apei
  • Hartă satelitară
  • Meteo pe hartă
  • Widget-uri
  • user-avatar
    Intrare

    Meteo pe oră la Besedka

    Astăzi, 23 Octombrie, Marţi

    Timp Temperatura Precipitaţii Vânt Presiune Umiditate
    00:00 +8°C° 0 mm 3 m/s 739 mmHg 54%
    01:00 +8°C° 0 mm 3 m/s 738 mmHg 54%
    02:00 +8°C° 0 mm 3 m/s 738 mmHg 54%
    03:00 +7°C° 0 mm 4 m/s 737 mmHg 58%
    04:00 +7°C° 0 mm 4 m/s 737 mmHg 59%
    05:00 +6°C° 0 mm 4 m/s 737 mmHg 59%
    06:00 +6°C° 0 mm 4 m/s 736 mmHg 59%
    07:00 +6°C° 0.1 mm 5 m/s 736 mmHg 61%
    08:00 +7°C° 0.1 mm 5 m/s 735 mmHg 62%
    09:00 +7°C° 0.1 mm 5 m/s 735 mmHg 63%
    10:00 +7°C° 0.3 mm 6 m/s 734 mmHg 65%
    11:00 +7°C° 0.3 mm 6 m/s 733 mmHg 66%
    12:00 +7°C° 0.3 mm 6 m/s 733 mmHg 67%
    13:00 +7°C° 0.2 mm 6 m/s 732 mmHg 69%
    14:00 +8°C° 0.2 mm 5 m/s 731 mmHg 71%
    15:00 +8°C° 0.2 mm 5 m/s 731 mmHg 73%
    16:00 +8°C° 0.1 mm 5 m/s 730 mmHg 75%
    17:00 +8°C° 0.1 mm 4 m/s 730 mmHg 78%
    18:00 +9°C° 0.1 mm 3 m/s 730 mmHg 80%
    19:00 +9°C° 0 mm 3 m/s 729 mmHg 84%
    20:00 +9°C° 0 mm 3 m/s 729 mmHg 87%
    21:00 +8°C° 0 mm 3 m/s 729 mmHg 91%
    22:00 +8°C° 0 mm 3 m/s 729 mmHg 92%
    23:00 +7°C° 0 mm 3 m/s 728 mmHg 92%

    Mâine, 24 Octombrie, Miercuri

    Timp Temperatura Precipitaţii Vânt Presiune Umiditate
    00:00 +7°C° 0 mm 3 m/s 728 mmHg 93%
    01:00 +7°C° 0 mm 3 m/s 728 mmHg 92%
    02:00 +5°C° 0 mm 3 m/s 728 mmHg 91%
    03:00 +5°C° 0 mm 3 m/s 727 mmHg 91%
    04:00 +4°C° 0 mm 3 m/s 727 mmHg 90%
    05:00 +4°C° 0 mm 3 m/s 727 mmHg 89%
    06:00 +4°C° 0 mm 3 m/s 726 mmHg 88%
    07:00 +5°C° 0 mm 4 m/s 726 mmHg 80%
    08:00 +6°C° 0 mm 5 m/s 726 mmHg 72%
    09:00 +7°C° 0 mm 6 m/s 726 mmHg 64%
    10:00 +8°C° 0 mm 6 m/s 726 mmHg 59%
    11:00 +10°C° 0 mm 7 m/s 725 mmHg 55%
    12:00 +11°C° 0 mm 7 m/s 725 mmHg 50%
    13:00 +11°C° 0 mm 7 m/s 725 mmHg 50%
    14:00 +11°C° 0 mm 7 m/s 724 mmHg 50%
    15:00 +12°C° 0 mm 7 m/s 724 mmHg 50%
    16:00 +11°C° 0 mm 6 m/s 723 mmHg 54%
    17:00 +11°C° 0 mm 6 m/s 723 mmHg 58%
    18:00 +10°C° 0 mm 5 m/s 722 mmHg 62%
    19:00 +10°C° 0.3 mm 6 m/s 722 mmHg 67%
    20:00 +10°C° 0.3 mm 7 m/s 722 mmHg 73%
    21:00 +10°C° 0.3 mm 7 m/s 722 mmHg 79%
    22:00 +10°C° 0.4 mm 7 m/s 721 mmHg 80%
    23:00 +10°C° 0.4 mm 7 m/s 721 mmHg 82%

    Poimâine, 25 Octombrie, Joi

    Timp Temperatura Precipitaţii Vânt Presiune Umiditate
    00:00 +10°C° 0.4 mm 6 m/s 721 mmHg 84%
    01:00 +10°C° 0.4 mm 6 m/s 720 mmHg 85%
    02:00 +10°C° 0.4 mm 6 m/s 720 mmHg 86%
    03:00 +10°C° 0.4 mm 6 m/s 720 mmHg 87%
    04:00 +10°C° 0.9 mm 7 m/s 719 mmHg 87%
    05:00 +10°C° 0.9 mm 8 m/s 719 mmHg 86%
    06:00 +10°C° 0.9 mm 8 m/s 718 mmHg 85%
    07:00 +10°C° 0.4 mm 8 m/s 718 mmHg 85%
    08:00 +10°C° 0.4 mm 7 m/s 718 mmHg 86%
    09:00 +10°C° 0.4 mm 7 m/s 718 mmHg 86%
    10:00 +10°C° 0.2 mm 7 m/s 718 mmHg 83%
    11:00 +11°C° 0.2 mm 7 m/s 718 mmHg 81%
    12:00 +11°C° 0.2 mm 6 m/s 718 mmHg 78%
    13:00 +11°C° 0.2 mm 6 m/s 718 mmHg 78%
    14:00 +11°C° 0.2 mm 6 m/s 718 mmHg 78%
    15:00 +11°C° 0.2 mm 6 m/s 718 mmHg 78%
    16:00 +10°C° 0.2 mm 5 m/s 718 mmHg 77%
    17:00 +9°C° 0.2 mm 5 m/s 719 mmHg 77%
    18:00 +8°C° 0.2 mm 4 m/s 719 mmHg 76%
    19:00 +7°C° 0 mm 4 m/s 719 mmHg 74%
    20:00 +7°C° 0 mm 4 m/s 719 mmHg 72%
    21:00 +6°C° 0 mm 4 m/s 720 mmHg 71%
    22:00 +6°C° 0 mm 4 m/s 720 mmHg 73%
    23:00 +5°C° 0 mm 4 m/s 720 mmHg 75%

    26 Octombrie, Vineri

    Timp Temperatura Precipitaţii Vânt Presiune Umiditate
    00:00 +5°C° 0 mm 4 m/s 721 mmHg 77%
    01:00 +5°C° 0 mm 4 m/s 721 mmHg 77%
    02:00 +5°C° 0 mm 3 m/s 721 mmHg 77%
    03:00 +5°C° 0 mm 3 m/s 722 mmHg 77%
    04:00 +4°C° 0 mm 4 m/s 722 mmHg 77%
    05:00 +4°C° 0 mm 4 m/s 722 mmHg 77%
    06:00 +4°C° 0 mm 4 m/s 722 mmHg 77%
    07:00 +4°C° 0 mm 4 m/s 723 mmHg 75%
    08:00 +3°C° 0 mm 5 m/s 723 mmHg 73%
    09:00 +5°C° 0 mm 5 m/s 724 mmHg 72%
    10:00 +5°C° 0 mm 5 m/s 724 mmHg 68%
    11:00 +4°C° 0 mm 6 m/s 725 mmHg 64%
    12:00 +5°C° 0 mm 6 m/s 725 mmHg 61%
    13:00 +5°C° 0.1 mm 6 m/s 725 mmHg 58%
    14:00 +5°C° 0.1 mm 6 m/s 725 mmHg 55%
    15:00 +5°C° 0.1 mm 6 m/s 726 mmHg 52%
    16:00 +4°C° 0 mm 6 m/s 726 mmHg 56%
    17:00 +3°C° 0 mm 5 m/s 727 mmHg 60%
    18:00 +3°C° 0 mm 4 m/s 727 mmHg 63%
    19:00 +3°C° 0 mm 4 m/s 727 mmHg 65%
    20:00 +1°C° 0 mm 4 m/s 728 mmHg 67%
    21:00 +2°C° 0 mm 3 m/s 728 mmHg 69%
    22:00 +2°C° 0 mm 3 m/s 729 mmHg 70%
    23:00 +1°C° 0 mm 3 m/s 729 mmHg 70%

    27 Octombrie, Sâmbătă

    Timp Temperatura Precipitaţii Vânt Presiune Umiditate
    00:00 +1°C° 0 mm 3 m/s 729 mmHg 71%
    01:00 +1°C° 0 mm 3 m/s 729 mmHg 70%
    02:00 +1°C° 0 mm 3 m/s 730 mmHg 70%
    03:00 0°C° 0 mm 3 m/s 730 mmHg 69%
    04:00 -1°C° 0 mm 4 m/s 730 mmHg 71%
    05:00 -1°C° 0 mm 4 m/s 731 mmHg 72%
    06:00 -1°C° 0 mm 4 m/s 731 mmHg 73%
    07:00 0°C° 0 mm 5 m/s 732 mmHg 71%
    08:00 +1°C° 0 mm 5 m/s 732 mmHg 69%
    09:00 +2°C° 0 mm 6 m/s 733 mmHg 67%
    10:00 +2°C° 0 mm 6 m/s 733 mmHg 66%
    11:00 +3°C° 0 mm 6 m/s 733 mmHg 65%
    12:00 +4°C° 0 mm 6 m/s 734 mmHg 64%
    13:00 +4°C° 0 mm 6 m/s 734 mmHg 62%
    14:00 +4°C° 0 mm 6 m/s 734 mmHg 60%
    15:00 +5°C° 0 mm 5 m/s 735 mmHg 59%
    16:00 +3°C° 0 mm 5 m/s 735 mmHg 63%
    17:00 +4°C° 0 mm 4 m/s 735 mmHg 67%
    18:00 +3°C° 0 mm 3 m/s 736 mmHg 72%
    19:00 +3°C° 0 mm 4 m/s 736 mmHg 73%
    20:00 +3°C° 0 mm 4 m/s 736 mmHg 74%
    21:00 +1°C° 0 mm 4 m/s 736 mmHg 75%
    22:00 +3°C° 0 mm 4 m/s 736 mmHg 74%
    23:00 +2°C° 0 mm 5 m/s 735 mmHg 73%

    28 Octombrie, Duminică

    Timp Temperatura Precipitaţii Vânt Presiune Umiditate
    00:00 +2°C° 0 mm 6 m/s 735 mmHg 71%
    01:00 +3°C° 0 mm 6 m/s 735 mmHg 71%
    02:00 +3°C° 0 mm 6 m/s 735 mmHg 71%
    03:00 +3°C° 0 mm 7 m/s 734 mmHg 71%
    04:00 +4°C° 0 mm 7 m/s 734 mmHg 74%
    05:00 +5°C° 0 mm 8 m/s 734 mmHg 78%
    06:00 +5°C° 0 mm 8 m/s 733 mmHg 81%
    07:00 +6°C° 0.1 mm 8 m/s 733 mmHg 83%
    08:00 +7°C° 0.1 mm 8 m/s 733 mmHg 84%
    09:00 +9°C° 0.1 mm 8 m/s 733 mmHg 85%
    10:00 +8°C° 0.3 mm 9 m/s 733 mmHg 84%
    11:00 +10°C° 0.3 mm 9 m/s 733 mmHg 83%
    12:00 +10°C° 0.3 mm 9 m/s 734 mmHg 82%
    13:00 +10°C° 0.2 mm 8 m/s 734 mmHg 81%
    14:00 +10°C° 0.2 mm 8 m/s 734 mmHg 80%
    15:00 +10°C° 0.2 mm 7 m/s 734 mmHg 79%
    16:00 +10°C° 0.2 mm 7 m/s 735 mmHg 80%
    17:00 +10°C° 0.2 mm 6 m/s 735 mmHg 82%
    18:00 +10°C° 0.2 mm 5 m/s 736 mmHg 84%
    19:00 +10°C° 0.3 mm 4 m/s 736 mmHg 86%
    20:00 +10°C° 0.3 mm 3 m/s 737 mmHg 88%
    21:00 +10°C° 0.3 mm 2 m/s 737 mmHg 90%
    22:00 +9°C° 0.2 mm 2 m/s 737 mmHg 90%
    23:00 +10°C° 0.2 mm 1 m/s 738 mmHg 89%

    29 Octombrie, Luni

    Timp Temperatura Precipitaţii Vânt Presiune Umiditate
    00:00 +10°C° 0.2 mm 1 m/s 738 mmHg 89%
    01:00 +10°C° 0 mm 1 m/s 738 mmHg 88%
    02:00 +9°C° 0 mm 1 m/s 739 mmHg 88%
    03:00 +9°C° 0 mm 1 m/s 739 mmHg 87%
    04:00 +8°C° 0.1 mm 2 m/s 739 mmHg 87%
    05:00 +8°C° 0.1 mm 2 m/s 739 mmHg 87%
    06:00 +8°C° 0.1 mm 2 m/s 739 mmHg 87%
    07:00 +8°C° 0.1 mm 2 m/s 740 mmHg 87%
    08:00 +8°C° 0.1 mm 3 m/s 740 mmHg 86%
    09:00 +8°C° 0.1 mm 3 m/s 740 mmHg 85%
    10:00 +9°C° 0 mm 3 m/s 740 mmHg 83%
    11:00 +10°C° 0 mm 3 m/s 741 mmHg 80%
    12:00 +11°C° 0 mm 3 m/s 741 mmHg 78%
    13:00 +12°C° 0 mm 3 m/s 741 mmHg 75%
    14:00 +12°C° 0 mm 3 m/s 741 mmHg 73%
    15:00 +13°C° 0 mm 3 m/s 741 mmHg 71%
    16:00 +13°C° 0 mm 2 m/s 741 mmHg 74%
    17:00 +12°C° 0 mm 2 m/s 741 mmHg 77%
    18:00 +10°C° 0 mm 2 m/s 741 mmHg 80%
    19:00 +10°C° 0 mm 2 m/s 741 mmHg 79%
    20:00 +10°C° 0 mm 2 m/s 741 mmHg 78%
    21:00 +9°C° 0 mm 2 m/s 741 mmHg 77%
    22:00 +9°C° 0 mm 2 m/s 741 mmHg 76%
    23:00 +9°C° 0 mm 2 m/s 742 mmHg 75%
    Arată mai mult